Location: Grasslands National Park East Block
(49.0708°N, 106.5295°W)
Time: 03:34:44
(UTC-06:00)

Transit 2A Rocket - Visible Passes

Search period start: 24 September 2019 00:00
Search period end: 04 October 2019 00:00
Orbit: 592 x 911 km, 66.7° (Epoch: 23 September)

Date Brightness Start Highest point End Pass type
(mag) Time Alt. Az. Time Alt. Az. Time Alt. Az.
24 Sep 4.9 20:58:00 10° NW 21:02:20 60° WSW 21:03:57 35° S visible
25 Sep 4.4 20:15:26 10° NW 20:19:51 79° NE 20:22:51 19° SE visible
25 Sep 7.1 21:59:35 10° WNW 22:01:43 13° WSW 22:02:47 12° WSW visible
26 Sep 4.9 19:32:58 10° NNW 19:37:16 47° NE 19:41:25 10° ESE visible
26 Sep 6.5 21:16:02 10° WNW 21:19:31 24° WSW 21:21:48 16° SSW visible
27 Sep 5.6 20:33:05 10° NW 20:37:12 41° WSW 20:40:55 12° S visible
28 Sep 4.7 19:50:25 10° NW 19:54:47 73° WSW 19:59:03 10° SSE visible
29 Sep 7.2 20:51:33 10° WNW 20:54:15 16° WSW 20:56:58 10° SSW visible
30 Sep 6.5 20:08:17 10° NW 20:12:01 28° WSW 20:15:42 10° S visible
01 Oct 5.5 19:25:27 10° NW 19:29:40 50° WSW 19:33:49 10° SSE visible
02 Oct 7.7 20:27:45 10° W 20:28:58 11° WSW 20:30:11 10° WSW visible
03 Oct 7.3 19:43:38 10° WNW 19:46:47 20° WSW 19:49:54 10° SSW visible
